Regional Weather Roundup
Issued by NWS

Home | Current Version | Previous Version | Text Only | Print | Product List | Glossary On
Versions: 1 2 3 4 5 6 7 8 9 10 11 12 13 14 15 16 17 18 19 20 21 22 23 24 25 26 27 28 29 30 31 32 33 34 35 36 37 38 39 40 41 42 43 44 45 46 47 48 49 50
068
ASUS42 KKEY 300110
RWRKEY

FLORIDA REGIONAL WEATHER ROUNDUP FOR THE FLORIDA KEYS
NATIONAL WEATHER SERVICE KEY WEST FLORIDA
900 PM EDT FRI APR 29 2016

...SOUTH FLORIDA AND THE KEYS...

CITY           SKY/WX    TMP DP  RH WIND       PRES   REMARKS
FORT MYERS     PTCLDY    79  72  79 NW7       29.93R
SW REGIONAL AP PTCLDY    80  71  74 CALM      29.94R
NAPLES         PTCLDY    79  71  76 S3        29.95R
MIAMI          CLOUDY    78  68  71 SE8       29.97R
WEST KENDALL     N/A    N/A N/A N/A MISG      29.96R
HOMESTEAD      PTCLDY    76  69  77 E6        29.96R
MARATHON       PTCLDY    79  70  74 SE7       29.95R
BOCA CHICA NAS MOCLDY    79  69  71 E12       29.94R
KEY WEST INTL  PTCLDY    79  72  79 E13       29.94R

...INTERNATIONAL WEATHER...

CITY           SKY/WX    TMP DP  RH WIND       PRES   REMARKS
NASSAU BAHAMAS PTCLDY    75  68  78 NE8       29.99R
CANCUN MEXICO  PTCLDY    81  75  83 E16       29.85R
COZUMEL MEXICO MOCLDY    77  73  88 SE10      29.84R

ADJACENT COASTAL WATERS...

STATION/POSITION TIME  SKY/WX   TEMP    WIND        PRES    WAVE
                                AIR SEA DIR/SP/G            HT/PER
                 (UTC)          (F)     (DEG/KT/KT) (MB)    (FT/S)
PULASKI SHOAL LI 0000            78      80/  9/ 10 1013.0F
SAND KEY         0050            79     110/ 14/ 17 1014.0R
SOMBRERO KEY     NOT AVBL
LONG KEY         0000            79 83  110/ 11/ 13 1014.2R
MOLASSES REEF    2300            78 80  100/ 11/ 13 1014.0S
FOWEY ROCKS      NOT AVBL

$$




USA.gov is the U.S. government's official web portal to all federal, state and local government web resources and services.